Time,TemperatureF,DewpointF,PressureIn,WindDirection,WindDirectionDegrees,WindSpeedMPH,WindSpeedGustMPH,Humidity,HourlyPrecipIn,Conditions,Clouds,dailyrainin,SolarRadiationWatts/m^2,SoftwareType,DateUTC
2013-07-25 00:07:00,48.5,46.6,29.99,SW,218,0.0,1.0,93,0.00,RA,FEW,0.00,0.0,WeatherDisplay:10.37,2013-07-25 04:07:00,
2013-07-25 00:17:00,48.5,46.6,30.00,SW,218,0.0,0.0,93,0.00,OVC,FEW,0.00,0.0,WeatherDisplay:10.37,2013-07-25 04:17:00,
2013-07-25 00:22:00,48.5,46.3,30.00,SW,218,0.0,0.0,92,0.00,OVC,FEW,0.00,0.0,WeatherDisplay:10.37,2013-07-25 04:22:00,
2013-07-25 00:27:00,48.5,46.2,29.99,SW,219,0.0,2.0,92,0.00,OVC,FEW,0.00,0.0,WeatherDisplay:10.37,2013-07-25 04:27:00,
2013-07-25 00:32:00,48.4,46.2,30.00,SW,220,0.0,0.0,92,0.00,OVC,FEW,0.00,0.0,WeatherDisplay:10.37,2013-07-25 04:32:00,
2013-07-25 00:37:00,48.4,46.5,30.00,SW,220,0.0,0.0,93,0.00,OVC,FEW,0.00,0.0,WeatherDisplay:10.37,2013-07-25 04:37:00,
2013-07-25 00:42:00,48.4,46.5,30.00,SW,220,0.0,1.0,93,0.00,OVC,FEW,0.00,0.0,WeatherDisplay:10.37,2013-07-25 04:42:00,
2013-07-25 00:47:00,48.4,46.8,30.00,SW,220,0.0,0.0,94,0.00,OVC,FEW,0.00,0.0,WeatherDisplay:10.37,2013-07-25 04:47:00,
2013-07-25 00:52:00,48.3,46.4,30.00,WSW,240,0.0,3.0,93,0.00,OVC,FEW,0.00,0.0,WeatherDisplay:10.37,2013-07-25 04:52:00,
2013-07-25 00:57:00,48.2,46.3,29.99,NNW,327,0.0,1.0,93,0.00,OVC,FEW,0.00,0.0,WeatherDisplay:10.37,2013-07-25 04:57:00,
2013-07-25 01:07:00,48.1,46.2,30.00,East,79,0.0,4.0,93,0.00,OVC,FEW,0.00,0.0,WeatherDisplay:10.37,2013-07-25 05:07:00,
2013-07-25 01:17:00,48.1,46.4,30.00,East,80,0.0,1.0,94,0.00,OVC,FEW,0.00,0.0,WeatherDisplay:10.37,2013-07-25 05:17:00,
2013-07-25 01:22:00,48.0,46.4,30.00,East,80,0.0,2.0,94,0.00,OVC,FEW,0.00,0.0,WeatherDisplay:10.37,2013-07-25 05:22:00,
2013-07-25 01:27:00,47.9,46.3,30.00,East,80,0.0,2.0,94,0.00,OVC,FEW,0.00,0.0,WeatherDisplay:10.37,2013-07-25 05:27:00,
2013-07-25 01:32:00,47.9,46.3,30.00,East,80,0.0,1.0,94,0.00,OVC,FEW,0.00,0.0,WeatherDisplay:10.37,2013-07-25 05:32:00,
2013-07-25 01:37:00,47.9,46.3,30.00,East,80,0.0,0.0,94,0.00,OVC,FEW,0.00,0.0,WeatherDisplay:10.37,2013-07-25 05:37:00,
2013-07-25 01:42:00,47.9,46.3,30.00,East,80,0.0,1.0,94,0.00,OVC,FEW,0.00,0.0,WeatherDisplay:10.37,2013-07-25 05:42:00,
2013-07-25 01:47:00,47.9,46.3,30.00,East,80,0.0,0.0,94,0.00,OVC,FEW,0.00,0.0,WeatherDisplay:10.37,2013-07-25 05:47:00,
2013-07-25 01:52:00,47.9,46.3,30.00,East,80,0.0,3.0,94,0.00,OVC,FEW,0.00,0.0,WeatherDisplay:10.37,2013-07-25 05:52:00,
2013-07-25 01:57:00,47.8,45.9,30.00,ENE,74,0.0,3.0,93,0.00,OVC,FEW,0.00,0.0,WeatherDisplay:10.37,2013-07-25 05:57:00,
2013-07-25 02:07:00,47.8,45.9,30.00,NE,41,0.0,2.0,93,0.00,OVC,FEW,0.00,0.0,WeatherDisplay:10.37,2013-07-25 06:07:00,
2013-07-25 02:17:00,47.7,45.8,30.00,NE,38,0.0,2.0,93,0.00,OVC,FEW,0.00,0.0,WeatherDisplay:10.37,2013-07-25 06:17:00,
2013-07-25 02:22:00,47.6,45.7,30.00,NNE,29,0.0,2.0,93,0.00,OVC,FEW,0.00,0.0,WeatherDisplay:10.37,2013-07-25 06:22:00,
2013-07-25 02:27:00,47.6,45.6,30.00,NNE,24,0.0,0.0,93,0.00,OVC,FEW,0.00,0.0,WeatherDisplay:10.37,2013-07-25 06:27:00,
2013-07-25 02:32:00,47.5,45.6,30.00,NNE,24,0.0,1.0,93,0.00,OVC,FEW,0.00,0.0,WeatherDisplay:10.37,2013-07-25 06:32:00,
2013-07-25 02:37:00,47.5,45.6,30.00,NNE,24,0.0,0.0,93,0.00,OVC,FEW,0.00,0.0,WeatherDisplay:10.37,2013-07-25 06:37:00,
2013-07-25 02:42:00,47.4,45.5,30.00,NNE,24,0.0,1.0,93,0.00,OVC,FEW,0.00,0.0,WeatherDisplay:10.37,2013-07-25 06:42:00,
2013-07-25 02:47:00,47.3,45.4,30.00,NNE,24,0.0,1.0,93,0.00,OVC,FEW,0.00,0.0,WeatherDisplay:10.37,2013-07-25 06:47:00,
2013-07-25 02:52:00,47.3,45.1,30.00,NNE,24,0.0,1.0,92,0.00,OVC,FEW,0.00,0.0,WeatherDisplay:10.37,2013-07-25 06:52:00,
2013-07-25 03:07:00,47.1,44.9,30.00,NNE,24,0.0,1.0,92,0.00,OVC,FEW,0.00,0.0,WeatherDisplay:10.37,2013-07-25 07:07:00,
2013-07-25 03:17:00,46.9,44.7,30.00,NNE,24,0.0,1.0,92,0.00,OVC,FEW,0.00,0.0,WeatherDisplay:10.37,2013-07-25 07:17:00,
2013-07-25 03:22:00,46.9,45.0,30.00,NNE,24,0.0,1.0,93,0.00,OVC,FEW,0.00,0.0,WeatherDisplay:10.37,2013-07-25 07:22:00,
2013-07-25 03:27:00,46.8,44.9,30.00,NNE,24,0.0,1.0,93,0.00,OVC,FEW,0.00,0.0,WeatherDisplay:10.37,2013-07-25 07:27:00,
2013-07-25 03:32:00,46.8,44.9,30.00,NNE,24,0.0,1.0,93,0.00,OVC,FEW,0.00,0.0,WeatherDisplay:10.37,2013-07-25 07:32:00,
2013-07-25 03:42:00,46.5,44.0,30.00,NNE,27,0.0,3.0,91,0.00,OVC,FEW,0.00,0.0,WeatherDisplay:10.37,2013-07-25 07:42:00,
2013-07-25 03:47:00,46.4,44.2,30.00,NE,39,0.0,0.0,92,0.00,OVC,FEW,0.00,0.0,WeatherDisplay:10.37,2013-07-25 07:47:00,
2013-07-25 03:52:00,46.3,43.8,30.01,NE,39,0.0,0.0,91,0.00,OVC,FEW,0.00,0.0,WeatherDisplay:10.37,2013-07-25 07:52:00,
2013-07-25 03:57:00,46.2,43.7,30.01,NE,39,0.0,1.0,91,0.00,OVC,FEW,0.00,0.0,WeatherDisplay:10.37,2013-07-25 07:57:00,
2013-07-25 04:07:00,46.2,44.0,30.02,NE,39,0.0,0.0,92,0.00,OVC,FEW,0.00,0.0,WeatherDisplay:10.37,2013-07-25 08:07:00,
2013-07-25 04:17:00,46.1,43.9,30.01,NE,39,0.0,0.0,92,0.00,OVC,FEW,0.00,0.0,WeatherDisplay:10.37,2013-07-25 08:17:00,
2013-07-25 04:22:00,46.1,43.9,30.02,NE,39,0.0,1.0,92,0.00,OVC,FEW,0.00,0.0,WeatherDisplay:10.37,2013-07-25 08:22:00,
2013-07-25 04:27:00,46.0,43.5,30.02,NE,39,0.0,0.0,91,0.00,OVC,FEW,0.00,0.0,WeatherDisplay:10.37,2013-07-25 08:27:00,
2013-07-25 04:32:00,46.0,43.5,30.02,NE,39,0.0,1.0,91,0.00,OVC,FEW,0.00,0.0,WeatherDisplay:10.37,2013-07-25 08:32:00,
2013-07-25 04:37:00,45.9,43.4,30.02,NNE,23,0.0,4.0,91,0.00,OVC,FEW,0.00,0.0,WeatherDisplay:10.37,2013-07-25 08:37:00,
2013-07-25 04:42:00,45.8,43.0,30.02,North,356,0.0,2.0,90,0.00,OVC,FEW,0.00,0.0,WeatherDisplay:10.37,2013-07-25 08:42:00,
2013-07-25 04:47:00,45.8,43.0,30.02,North,355,0.0,0.0,90,0.00,OVC,FEW,0.00,0.0,WeatherDisplay:10.37,2013-07-25 08:47:00,
2013-07-25 04:52:00,45.7,42.9,30.03,North,355,0.0,1.0,90,0.00,OVC,FEW,0.00,0.0,WeatherDisplay:10.37,2013-07-25 08:52:00,
2013-07-25 04:57:00,45.7,42.9,30.02,North,355,0.0,1.0,90,0.00,OVC,FEW,0.00,0.0,WeatherDisplay:10.37,2013-07-25 08:57:00,
2013-07-25 05:07:00,45.4,42.9,30.02,North,355,0.0,2.0,91,0.00,CLR,FEW,0.00,0.0,WeatherDisplay:10.37,2013-07-25 09:07:00,
2013-07-25 05:17:00,45.2,42.7,30.03,North,356,0.0,1.0,91,0.00,CLR,FEW,0.00,0.0,WeatherDisplay:10.37,2013-07-25 09:17:00,
2013-07-25 05:22:00,45.1,42.9,30.03,North,11,0.0,0.0,92,0.00,CLR,FEW,0.00,0.0,WeatherDisplay:10.37,2013-07-25 09:22:00,
2013-07-25 05:27:00,45.1,42.6,30.04,NNE,17,0.0,2.0,91,0.00,CLR,FEW,0.00,0.0,WeatherDisplay:10.37,2013-07-25 09:27:00,
2013-07-25 05:32:00,45.0,42.5,30.04,NE,51,0.0,1.0,91,0.00,CLR,FEW,0.00,5.0,WeatherDisplay:10.37,2013-07-25 09:32:00,
2013-07-25 05:37:00,45.0,42.5,30.04,NE,51,0.0,0.0,91,0.00,CLR,FEW,0.00,7.0,WeatherDisplay:10.37,2013-07-25 09:37:00,
2013-07-25 05:47:00,44.9,42.7,30.04,NE,51,0.0,0.0,92,0.00,BKN,FEW,0.00,18.0,WeatherDisplay:10.37,2013-07-25 09:47:00,
2013-07-25 05:52:00,44.9,42.7,30.04,NE,51,1.0,2.0,92,0.00,BKN,FEW,0.00,25.0,WeatherDisplay:10.37,2013-07-25 09:52:00,
2013-07-25 05:57:00,44.8,42.7,30.04,NE,49,0.0,0.0,92,0.00,BKN,FEW,0.00,26.0,WeatherDisplay:10.37,2013-07-25 09:57:00,
2013-07-25 06:07:00,44.8,42.6,30.04,NE,54,0.0,3.0,92,0.00,BKN,FEW,0.00,26.0,WeatherDisplay:10.37,2013-07-25 10:07:00,
2013-07-25 06:17:00,44.7,42.5,30.03,NE,47,0.0,2.0,92,0.00,BKN,FEW,0.00,42.0,WeatherDisplay:10.37,2013-07-25 10:17:00,
2013-07-25 06:22:00,44.6,42.4,30.04,NE,44,0.0,1.0,92,0.00,BKN,FEW,0.00,42.0,WeatherDisplay:10.37,2013-07-25 10:22:00,
2013-07-25 06:27:00,44.8,42.6,30.04,NE,44,0.0,1.0,92,0.00,BKN,FEW,0.00,42.0,WeatherDisplay:10.37,2013-07-25 10:27:00,
2013-07-25 06:37:00,44.9,42.4,30.05,NNW,343,0.0,2.0,91,0.00,BKN,FEW,0.00,54.0,WeatherDisplay:10.37,2013-07-25 10:37:00,
2013-07-25 06:42:00,45.0,42.5,30.05,ENE,62,0.0,1.0,91,0.00,BKN,FEW,0.00,42.0,WeatherDisplay:10.37,2013-07-25 10:42:00,
2013-07-25 06:47:00,45.1,42.6,30.06,ENE,78,0.0,1.0,91,0.00,BKN,FEW,0.00,60.0,WeatherDisplay:10.37,2013-07-25 10:47:00,
2013-07-25 06:52:00,45.1,42.3,30.06,ENE,78,0.0,1.0,90,0.00,BKN,FEW,0.00,70.0,WeatherDisplay:10.37,2013-07-25 10:52:00,
2013-07-25 06:57:00,45.1,42.3,30.06,ENE,78,0.0,0.0,90,0.00,BKN,FEW,0.00,77.0,WeatherDisplay:10.37,2013-07-25 10:57:00,
2013-07-25 07:07:00,45.4,42.9,30.07,ENE,78,0.0,1.0,91,0.00,SCT,FEW,0.00,111.0,WeatherDisplay:10.37,2013-07-25 11:07:00,
2013-07-25 07:17:00,45.7,42.7,30.06,ESE,106,0.0,4.0,89,0.00,SCT,FEW,0.00,144.0,WeatherDisplay:10.37,2013-07-25 11:17:00,
2013-07-25 07:22:00,46.0,42.9,30.07,ESE,115,0.0,1.0,89,0.00,SCT,FEW,0.00,70.0,WeatherDisplay:10.37,2013-07-25 11:22:00,
2013-07-25 07:27:00,46.2,42.8,30.07,ESE,103,0.0,1.0,88,0.00,SCT,FEW,0.00,135.0,WeatherDisplay:10.37,2013-07-25 11:27:00,
2013-07-25 07:32:00,46.4,43.0,30.07,ESE,107,1.0,3.0,88,0.00,SCT,FEW,0.00,327.0,WeatherDisplay:10.37,2013-07-25 11:32:00,
2013-07-25 07:37:00,46.9,43.2,30.07,ESE,108,0.0,3.0,87,0.00,SCT,FEW,0.00,318.0,WeatherDisplay:10.37,2013-07-25 11:37:00,
2013-07-25 07:47:00,48.3,44.0,30.08,NE,53,1.0,5.0,85,0.00,SCT,FEW,0.00,396.0,WeatherDisplay:10.37,2013-07-25 11:47:00,
2013-07-25 07:52:00,48.9,43.6,30.08,East,101,2.0,4.0,82,0.00,SCT,FEW,0.00,83.0,WeatherDisplay:10.37,2013-07-25 11:52:00,
2013-07-25 08:07:00,47.9,43.3,30.09,SE,146,0.0,4.0,84,0.00,SCT,FEW,0.00,183.0,WeatherDisplay:10.37,2013-07-25 12:07:00,
2013-07-25 08:17:00,48.5,43.9,30.08,SE,140,0.0,2.0,84,0.00,CLR,FEW,0.00,461.0,WeatherDisplay:10.37,2013-07-25 12:17:00,
2013-07-25 08:22:00,49.2,44.6,30.08,SE,129,0.0,1.0,84,0.00,CLR,FEW,0.00,461.0,WeatherDisplay:10.37,2013-07-25 12:22:00,
2013-07-25 08:27:00,50.1,44.8,30.08,ESE,111,1.0,5.0,82,0.00,CLR,FEW,0.00,485.0,WeatherDisplay:10.37,2013-07-25 12:27:00,
2013-07-25 08:42:00,50.4,44.5,30.09,ESE,110,0.0,2.0,80,0.00,CLR,FEW,0.00,589.0,WeatherDisplay:10.37,2013-07-25 12:42:00,
2013-07-25 08:52:00,51.7,45.1,30.09,NE,42,0.0,2.0,78,0.00,CLR,FEW,0.00,613.0,WeatherDisplay:10.37,2013-07-25 12:52:00,
2013-07-25 08:57:00,52.3,45.3,30.09,ENE,61,1.0,5.0,77,0.00,CLR,FEW,0.00,596.0,WeatherDisplay:10.37,2013-07-25 12:57:00,
2013-07-25 09:07:00,52.6,44.5,30.09,ESE,119,1.0,6.0,74,0.00,CLR,FEW,0.00,610.0,WeatherDisplay:10.37,2013-07-25 13:07:00,
2013-07-25 09:17:00,52.9,45.5,30.09,SE,128,2.0,6.0,76,0.00,CLR,FEW,0.00,635.0,WeatherDisplay:10.37,2013-07-25 13:17:00,
2013-07-25 09:22:00,53.3,45.5,30.09,SE,136,1.0,5.0,75,0.00,CLR,FEW,0.00,650.0,WeatherDisplay:10.37,2013-07-25 13:22:00,
2013-07-25 09:27:00,53.6,46.2,30.10,SE,140,3.0,7.0,76,0.00,CLR,FEW,0.00,663.0,WeatherDisplay:10.37,2013-07-25 13:27:00,
2013-07-25 09:32:00,53.4,45.7,30.10,SSE,150,2.0,4.0,75,0.00,CLR,FEW,0.00,679.0,WeatherDisplay:10.37,2013-07-25 13:32:00,
2013-07-25 09:47:00,53.9,45.8,30.10,SSE,152,2.0,6.0,74,0.00,CLR,FEW,0.00,717.0,WeatherDisplay:10.37,2013-07-25 13:47:00,
2013-07-25 09:57:00,54.6,46.9,30.10,SSE,166,3.0,5.0,75,0.00,CLR,FEW,0.00,747.0,WeatherDisplay:10.37,2013-07-25 13:57:00,
2013-07-25 10:07:00,55.5,47.0,30.11,SSE,168,1.0,5.0,73,0.00,CLR,FEW,0.00,782.0,WeatherDisplay:10.37,2013-07-25 14:07:00,
2013-07-25 10:17:00,55.9,47.4,30.10,SSE,168,2.0,4.0,73,0.00,CLR,FEW,0.00,800.0,WeatherDisplay:10.37,2013-07-25 14:17:00,
2013-07-25 10:27:00,55.8,46.9,30.10,SSE,159,1.0,5.0,72,0.00,CLR,FEW,0.00,819.0,WeatherDisplay:10.37,2013-07-25 14:27:00,
2013-07-25 10:37:00,56.1,48.3,30.10,SSE,167,1.0,4.0,75,0.00,CLR,FEW,0.00,847.0,WeatherDisplay:10.37,2013-07-25 14:37:00,
2013-07-25 10:47:00,56.9,48.0,30.10,South,180,1.0,3.0,72,0.00,CLR,FEW,0.00,868.0,WeatherDisplay:10.37,2013-07-25 14:47:00,
2013-07-25 10:52:00,57.3,47.6,30.10,SSE,147,1.0,5.0,70,0.00,CLR,FEW,0.00,877.0,WeatherDisplay:10.37,2013-07-25 14:52:00,
2013-07-25 11:07:00,58.0,47.5,30.10,SSE,148,3.0,5.0,68,0.00,SCT,FEW,0.00,937.0,WeatherDisplay:10.37,2013-07-25 15:07:00,
2013-07-25 11:17:00,58.0,48.3,30.10,South,178,1.0,6.0,70,0.00,SCT,FEW,0.00,984.0,WeatherDisplay:10.37,2013-07-25 15:17:00,
2013-07-25 11:22:00,58.3,48.2,30.10,South,176,2.0,6.0,69,0.00,SCT,FEW,0.00,874.0,WeatherDisplay:10.37,2013-07-25 15:22:00,
2013-07-25 11:27:00,58.4,48.7,30.10,SSE,163,2.0,6.0,70,0.00,SCT,FEW,0.00,909.0,WeatherDisplay:10.37,2013-07-25 15:27:00,
2013-07-25 11:37:00,58.7,47.8,30.10,South,178,1.0,4.0,67,0.00,SCT,FEW,0.00,953.0,WeatherDisplay:10.37,2013-07-25 15:37:00,
2013-07-25 11:47:00,59.4,48.4,30.11,South,182,1.0,5.0,67,0.00,SCT,FEW,0.00,1104.0,WeatherDisplay:10.37,2013-07-25 15:47:00,
2013-07-25 11:52:00,59.6,48.2,30.11,South,169,1.0,6.0,66,0.00,SCT,FEW,0.00,355.0,WeatherDisplay:10.37,2013-07-25 15:52:00,
2013-07-25 11:57:00,59.7,48.7,30.11,SSE,158,0.0,4.0,67,0.00,SCT,FEW,0.00,693.0,WeatherDisplay:10.37,2013-07-25 15:57:00,
2013-07-25 12:07:00,60.4,48.6,30.11,SSE,148,2.0,6.0,65,0.00,CLR,FEW,0.00,991.0,WeatherDisplay:10.37,2013-07-25 16:07:00,
2013-07-25 12:17:00,60.6,47.9,30.10,SSE,157,1.0,3.0,63,0.00,CLR,FEW,0.00,287.0,WeatherDisplay:10.37,2013-07-25 16:17:00,
2013-07-25 12:22:00,60.9,49.4,30.11,SSE,149,1.0,5.0,66,0.00,CLR,FEW,0.00,947.0,WeatherDisplay:10.37,2013-07-25 16:22:00,
2013-07-25 12:27:00,61.1,48.4,30.10,SE,145,1.0,4.0,63,0.00,CLR,FEW,0.00,645.0,WeatherDisplay:10.37,2013-07-25 16:27:00,
2013-07-25 12:32:00,61.2,49.3,30.10,NE,51,2.0,4.0,65,0.00,CLR,FEW,0.00,645.0,WeatherDisplay:10.37,2013-07-25 16:32:00,
2013-07-25 12:42:00,61.5,50.4,30.10,East,100,2.0,6.0,67,0.00,CLR,FEW,0.00,1125.0,WeatherDisplay:10.37,2013-07-25 16:42:00,
2013-07-25 12:47:00,61.4,48.7,30.10,SE,133,1.0,5.0,63,0.00,CLR,FEW,0.00,844.0,WeatherDisplay:10.37,2013-07-25 16:47:00,
2013-07-25 12:52:00,61.6,49.3,30.10,SE,139,3.0,5.0,64,0.00,CLR,FEW,0.00,991.0,WeatherDisplay:10.37,2013-07-25 16:52:00,
2013-07-25 13:07:00,61.9,50.4,30.10,SSE,164,1.0,7.0,66,0.00,CLR,FEW,0.00,1102.0,WeatherDisplay:10.37,2013-07-25 17:07:00,
2013-07-25 13:17:00,62.2,49.8,30.10,SSE,157,2.0,6.0,64,0.00,CLR,FEW,0.00,819.0,WeatherDisplay:10.37,2013-07-25 17:17:00,
2013-07-25 13:22:00,62.0,49.7,30.10,SSE,158,2.0,4.0,64,0.00,CLR,FEW,0.00,1078.0,WeatherDisplay:10.37,2013-07-25 17:22:00,
2013-07-25 13:27:00,62.2,49.9,30.10,SSE,160,3.0,5.0,64,0.00,CLR,FEW,0.00,584.0,WeatherDisplay:10.37,2013-07-25 17:27:00,
2013-07-25 13:32:00,62.6,51.1,30.10,SSE,149,1.0,4.0,66,0.00,CLR,FEW,0.00,1074.0,WeatherDisplay:10.37,2013-07-25 17:32:00,
2013-07-25 13:42:00,63.3,50.5,30.10,SSE,153,2.0,6.0,63,0.00,CLR,FEW,0.00,1041.0,WeatherDisplay:10.37,2013-07-25 17:42:00,
2013-07-25 13:47:00,63.5,49.8,30.10,SE,141,1.0,5.0,61,0.00,CLR,FEW,0.00,1092.0,WeatherDisplay:10.37,2013-07-25 17:47:00,
2013-07-25 13:52:00,64.0,50.3,30.10,SE,132,1.0,4.0,61,0.00,CLR,FEW,0.00,1025.0,WeatherDisplay:10.37,2013-07-25 17:52:00,
2013-07-25 13:57:00,64.4,52.0,30.10,SE,136,1.0,5.0,64,0.00,CLR,FEW,0.00,1099.0,WeatherDisplay:10.37,2013-07-25 17:57:00,
2013-07-25 14:07:00,64.4,50.2,30.10,SSE,153,1.0,4.0,60,0.00,CLR,FEW,0.00,1132.0,WeatherDisplay:10.37,2013-07-25 18:07:00,
2013-07-25 14:17:00,65.1,51.3,30.09,SSE,155,1.0,3.0,61,0.00,CLR,FEW,0.00,455.0,WeatherDisplay:10.37,2013-07-25 18:17:00,
2013-07-25 14:22:00,64.8,51.1,30.09,SSE,155,3.0,10.0,61,0.00,CLR,FEW,0.00,1093.0,WeatherDisplay:10.37,2013-07-25 18:22:00,
2013-07-25 14:27:00,64.9,51.1,30.10,SSE,156,2.0,4.0,61,0.00,CLR,FEW,0.00,1051.0,WeatherDisplay:10.37,2013-07-25 18:27:00,
2013-07-25 14:32:00,64.8,50.6,30.10,SSE,168,1.0,6.0,60,0.00,CLR,FEW,0.00,1034.0,WeatherDisplay:10.37,2013-07-25 18:32:00,
2013-07-25 14:37:00,65.1,50.8,30.10,SSE,167,3.0,7.0,60,0.00,CLR,FEW,0.00,1067.0,WeatherDisplay:10.37,2013-07-25 18:37:00,
2013-07-25 14:42:00,65.0,50.8,30.10,SSE,163,2.0,10.0,60,0.00,CLR,FEW,0.00,635.0,WeatherDisplay:10.37,2013-07-25 18:42:00,
2013-07-25 14:52:00,65.5,51.3,30.09,SSE,150,1.0,2.0,60,0.00,CLR,FEW,0.00,969.0,WeatherDisplay:10.37,2013-07-25 18:52:00,
2013-07-25 15:07:00,66.2,52.3,30.09,SSE,168,1.0,7.0,61,0.00,CLR,FEW,0.00,1025.0,WeatherDisplay:10.37,2013-07-25 19:07:00,
2013-07-25 15:17:00,66.1,52.3,30.09,SE,135,3.0,6.0,61,0.00,CLR,FEW,0.00,1071.0,WeatherDisplay:10.37,2013-07-25 19:17:00,
2013-07-25 15:22:00,66.2,51.4,30.09,SE,140,2.0,4.0,59,0.00,CLR,FEW,0.00,197.0,WeatherDisplay:10.37,2013-07-25 19:22:00,
2013-07-25 15:27:00,65.7,51.4,30.09,SSE,148,0.0,3.0,60,0.00,CLR,FEW,0.00,190.0,WeatherDisplay:10.37,2013-07-25 19:27:00,
2013-07-25 15:32:00,65.3,50.6,30.09,SE,142,0.0,1.0,59,0.00,CLR,FEW,0.00,223.0,WeatherDisplay:10.37,2013-07-25 19:32:00,
2013-07-25 15:37:00,65.3,50.6,30.09,SE,142,0.0,1.0,59,0.00,CLR,FEW,0.00,954.0,WeatherDisplay:10.37,2013-07-25 19:37:00,
2013-07-25 15:47:00,66.3,51.5,30.09,SE,144,0.0,4.0,59,0.00,CLR,FEW,0.00,907.0,WeatherDisplay:10.37,2013-07-25 19:47:00,
2013-07-25 15:57:00,65.9,51.2,30.09,SE,144,2.0,3.0,59,0.00,CLR,FEW,0.00,921.0,WeatherDisplay:10.37,2013-07-25 19:57:00,
2013-07-25 16:07:00,65.7,52.8,30.08,SE,145,0.0,3.0,63,0.00,CLR,FEW,0.00,250.0,WeatherDisplay:10.37,2013-07-25 20:07:00,
2013-07-25 16:17:00,65.5,53.8,30.08,SE,146,0.0,1.0,66,0.00,CLR,FEW,0.00,272.0,WeatherDisplay:10.37,2013-07-25 20:17:00,
2013-07-25 16:27:00,66.7,53.3,30.09,SSE,158,1.0,4.0,62,0.00,CLR,FEW,0.00,918.0,WeatherDisplay:10.37,2013-07-25 20:27:00,
2013-07-25 16:32:00,67.3,53.4,30.09,SSE,163,1.0,4.0,61,0.00,CLR,FEW,0.00,905.0,WeatherDisplay:10.37,2013-07-25 20:32:00,
2013-07-25 16:37:00,67.9,52.6,30.09,South,170,1.0,3.0,58,0.00,CLR,FEW,0.00,758.0,WeatherDisplay:10.37,2013-07-25 20:37:00,
2013-07-25 16:42:00,67.9,52.1,30.09,South,172,1.0,3.0,57,0.00,CLR,FEW,0.00,603.0,WeatherDisplay:10.37,2013-07-25 20:42:00,
2013-07-25 16:52:00,67.8,53.4,30.08,South,171,0.0,2.0,60,0.00,CLR,FEW,0.00,195.0,WeatherDisplay:10.37,2013-07-25 20:52:00,
2013-07-25 16:57:00,67.5,53.2,30.08,South,170,0.0,3.0,60,0.00,CLR,FEW,0.00,155.0,WeatherDisplay:10.37,2013-07-25 20:57:00,
2013-07-25 17:07:00,67.3,54.7,30.09,South,169,0.0,1.0,64,0.00,CLR,FEW,0.00,584.0,WeatherDisplay:10.37,2013-07-25 21:07:00,
2013-07-25 17:17:00,67.4,53.0,30.09,South,170,1.0,3.0,60,0.00,CLR,FEW,0.00,355.0,WeatherDisplay:10.37,2013-07-25 21:17:00,
2013-07-25 17:22:00,67.3,53.4,30.08,South,170,0.0,2.0,61,0.00,CLR,FEW,0.00,308.0,WeatherDisplay:10.37,2013-07-25 21:22:00,
2013-07-25 17:27:00,67.2,54.6,30.08,South,171,0.0,2.0,64,0.00,CLR,FEW,0.00,432.0,WeatherDisplay:10.37,2013-07-25 21:27:00,
2013-07-25 17:37:00,67.5,55.7,30.08,South,172,0.0,2.0,66,0.00,CLR,FEW,0.00,346.0,WeatherDisplay:10.37,2013-07-25 21:37:00,
2013-07-25 17:42:00,67.6,55.8,30.08,South,172,0.0,1.0,66,0.00,CLR,FEW,0.00,420.0,WeatherDisplay:10.37,2013-07-25 21:42:00,
2013-07-25 17:47:00,67.6,55.4,30.09,South,172,0.0,1.0,65,0.00,CLR,FEW,0.00,330.0,WeatherDisplay:10.37,2013-07-25 21:47:00,
2013-07-25 17:52:00,67.7,55.5,30.09,South,172,0.0,2.0,65,0.00,CLR,FEW,0.00,390.0,WeatherDisplay:10.37,2013-07-25 21:52:00,
2013-07-25 17:57:00,67.5,54.9,30.09,East,92,0.0,3.0,64,0.00,CLR,FEW,0.00,144.0,WeatherDisplay:10.37,2013-07-25 21:57:00,
2013-07-25 18:07:00,66.5,56.0,30.09,East,79,0.0,1.0,69,0.00,BKN,FEW,0.00,244.0,WeatherDisplay:10.37,2013-07-25 22:07:00,
2013-07-25 18:17:00,65.7,56.8,30.09,ENE,78,0.0,1.0,73,0.00,BKN,FEW,0.00,167.0,WeatherDisplay:10.37,2013-07-25 22:17:00,
2013-07-25 18:22:00,65.4,57.3,30.09,ENE,77,0.0,1.0,75,0.00,BKN,FEW,0.00,156.0,WeatherDisplay:10.37,2013-07-25 22:22:00,
2013-07-25 18:27:00,65.1,56.6,30.09,ENE,77,0.0,1.0,74,0.00,BKN,FEW,0.00,123.0,WeatherDisplay:10.37,2013-07-25 22:27:00,
2013-07-25 18:32:00,64.8,56.3,30.09,ENE,77,0.0,1.0,74,0.00,BKN,FEW,0.00,116.0,WeatherDisplay:10.37,2013-07-25 22:32:00,
2013-07-25 18:37:00,64.5,56.4,30.09,NW,320,0.0,3.0,75,0.00,BKN,FEW,0.00,121.0,WeatherDisplay:10.37,2013-07-25 22:37:00,
2013-07-25 18:42:00,64.4,56.3,30.09,NW,317,0.0,1.0,75,0.00,BKN,FEW,0.00,123.0,WeatherDisplay:10.37,2013-07-25 22:42:00,
2013-07-25 18:47:00,64.3,56.6,30.09,NW,317,0.0,0.0,76,0.00,BKN,FEW,0.00,105.0,WeatherDisplay:10.37,2013-07-25 22:47:00,
2013-07-25 18:57:00,63.8,56.1,30.09,NW,317,0.0,1.0,76,0.00,BKN,FEW,0.00,76.0,WeatherDisplay:10.37,2013-07-25 22:57:00,
2013-07-25 19:07:00,63.1,56.1,30.09,NW,317,0.0,1.0,78,0.00,CLR,FEW,0.00,74.0,WeatherDisplay:10.37,2013-07-25 23:07:00,
2013-07-25 19:17:00,62.3,55.7,30.09,NW,313,0.0,4.0,79,0.00,CLR,FEW,0.00,63.0,WeatherDisplay:10.37,2013-07-25 23:17:00,
2013-07-25 19:27:00,61.7,55.5,30.10,NW,309,0.0,1.0,80,0.00,CLR,FEW,0.00,44.0,WeatherDisplay:10.37,2013-07-25 23:27:00,
2013-07-25 19:32:00,61.4,55.5,30.09,NW,310,0.0,1.0,81,0.00,CLR,FEW,0.00,37.0,WeatherDisplay:10.37,2013-07-25 23:32:00,
2013-07-25 19:37:00,61.2,55.3,30.10,NW,311,0.0,1.0,81,0.00,CLR,FEW,0.00,39.0,WeatherDisplay:10.37,2013-07-25 23:37:00,
2013-07-25 19:42:00,60.8,55.3,30.10,NW,304,0.0,5.0,82,0.00,CLR,FEW,0.00,35.0,WeatherDisplay:10.37,2013-07-25 23:42:00,
2013-07-25 19:52:00,60.3,54.8,30.10,NNW,330,0.0,4.0,82,0.00,CLR,FEW,0.00,35.0,WeatherDisplay:10.37,2013-07-25 23:52:00,
2013-07-25 19:57:00,60.1,54.6,30.10,NNW,329,0.0,2.0,82,0.00,CLR,FEW,0.00,30.0,WeatherDisplay:10.37,2013-07-25 23:57:00,
2013-07-25 20:07:00,59.8,54.6,30.10,North,356,0.0,3.0,83,0.00,CLR,FEW,0.00,16.0,WeatherDisplay:10.37,2013-07-26 00:07:00,
2013-07-25 20:17:00,59.7,54.5,30.10,NNW,339,0.0,4.0,83,0.00,CLR,FEW,0.00,18.0,WeatherDisplay:10.37,2013-07-26 00:17:00,
2013-07-25 20:22:00,59.7,54.5,30.10,NNW,339,0.0,1.0,83,0.00,CLR,FEW,0.00,16.0,WeatherDisplay:10.37,2013-07-26 00:22:00,
2013-07-25 20:32:00,59.5,54.3,30.10,NNW,338,0.0,0.0,83,0.00,CLR,FEW,0.00,7.0,WeatherDisplay:10.37,2013-07-26 00:32:00,
2013-07-25 20:37:00,59.2,54.1,30.10,NNW,338,0.0,1.0,83,0.00,CLR,FEW,0.00,0.0,WeatherDisplay:10.37,2013-07-26 00:37:00,
2013-07-25 20:47:00,58.6,53.7,30.10,NNW,338,0.0,1.0,84,0.00,CLR,FEW,0.00,0.0,WeatherDisplay:10.37,2013-07-26 00:47:00,
2013-07-25 20:57:00,58.0,52.9,30.11,NNW,336,0.0,2.0,83,0.00,CLR,FEW,0.00,0.0,WeatherDisplay:10.37,2013-07-26 00:57:00,
2013-07-25 21:07:00,58.0,53.2,30.11,NNW,340,0.0,2.0,84,0.00,CLR,FEW,0.00,0.0,WeatherDisplay:10.37,2013-07-26 01:07:00,
2013-07-25 21:17:00,58.0,52.9,30.11,NNW,339,0.0,1.0,83,0.00,CLR,FEW,0.00,0.0,WeatherDisplay:10.37,2013-07-26 01:17:00,
2013-07-25 21:22:00,58.0,53.2,30.11,NNW,339,0.0,1.0,84,0.00,CLR,FEW,0.00,0.0,WeatherDisplay:10.37,2013-07-26 01:22:00,
2013-07-25 21:27:00,58.0,53.2,30.11,NNW,339,0.0,0.0,84,0.00,CLR,FEW,0.00,0.0,WeatherDisplay:10.37,2013-07-26 01:27:00,
2013-07-25 21:32:00,57.9,53.1,30.11,NNW,339,0.0,1.0,84,0.00,CLR,FEW,0.00,0.0,WeatherDisplay:10.37,2013-07-26 01:32:00,
2013-07-25 21:37:00,57.7,52.9,30.11,NNW,339,0.0,1.0,84,0.00,CLR,FEW,0.00,0.0,WeatherDisplay:10.37,2013-07-26 01:37:00,
2013-07-25 21:47:00,57.7,53.2,30.11,NNW,339,0.0,1.0,85,0.00,CLR,FEW,0.00,0.0,WeatherDisplay:10.37,2013-07-26 01:47:00,
2013-07-25 21:52:00,58.0,53.2,30.11,NNW,340,1.0,2.0,84,0.00,CLR,FEW,0.00,0.0,WeatherDisplay:10.37,2013-07-26 01:52:00,
2013-07-25 22:07:00,58.0,53.2,30.12,NNW,340,0.0,1.0,84,0.00,CLR,FEW,0.00,0.0,WeatherDisplay:10.37,2013-07-26 02:07:00,
2013-07-25 22:17:00,58.0,53.2,30.11,NNW,340,0.0,1.0,84,0.00,CLR,FEW,0.00,0.0,WeatherDisplay:10.37,2013-07-26 02:17:00,
2013-07-25 22:22:00,58.0,53.2,30.11,NNW,340,0.0,0.0,84,0.00,CLR,FEW,0.00,0.0,WeatherDisplay:10.37,2013-07-26 02:22:00,
2013-07-25 22:27:00,58.0,53.2,30.12,NNW,340,0.0,1.0,84,0.00,CLR,FEW,0.00,0.0,WeatherDisplay:10.37,2013-07-26 02:27:00,
2013-07-25 22:32:00,58.0,53.5,30.12,NNW,340,0.0,0.0,85,0.00,CLR,FEW,0.00,0.0,WeatherDisplay:10.37,2013-07-26 02:32:00,
2013-07-25 22:37:00,58.0,53.5,30.11,NNW,340,0.0,1.0,85,0.00,CLR,FEW,0.00,0.0,WeatherDisplay:10.37,2013-07-26 02:37:00,
2013-07-25 22:42:00,58.0,53.5,30.11,NNW,341,0.0,1.0,85,0.00,CLR,FEW,0.00,0.0,WeatherDisplay:10.37,2013-07-26 02:42:00,
2013-07-25 22:47:00,58.0,53.5,30.11,NNW,342,0.0,1.0,85,0.00,CLR,FEW,0.00,0.0,WeatherDisplay:10.37,2013-07-26 02:47:00,
2013-07-25 22:52:00,58.0,53.2,30.11,NNW,342,0.0,0.0,84,0.00,CLR,FEW,0.00,0.0,WeatherDisplay:10.37,2013-07-26 02:52:00,
2013-07-25 22:57:00,58.0,53.5,30.11,NNW,345,0.0,2.0,85,0.00,CLR,FEW,0.00,0.0,WeatherDisplay:10.37,2013-07-26 02:57:00,
2013-07-25 23:07:00,58.0,53.5,30.11,North,360,0.0,1.0,85,0.00,CLR,FEW,0.00,0.0,WeatherDisplay:10.37,2013-07-26 03:07:00,
2013-07-25 23:17:00,57.7,53.6,30.11,North,360,0.0,1.0,86,0.00,CLR,FEW,0.00,0.0,WeatherDisplay:10.37,2013-07-26 03:17:00,
2013-07-25 23:22:00,57.7,53.5,30.11,North,360,0.0,1.0,86,0.00,CLR,FEW,0.00,0.0,WeatherDisplay:10.37,2013-07-26 03:22:00,
2013-07-25 23:27:00,57.7,53.2,30.11,North,360,0.0,1.0,85,0.00,CLR,FEW,0.00,0.0,WeatherDisplay:10.37,2013-07-26 03:27:00,
2013-07-25 23:37:00,58.0,53.5,30.10,North,360,0.0,1.0,85,0.00,CLR,FEW,0.00,0.0,WeatherDisplay:10.37,2013-07-26 03:37:00,
2013-07-25 23:42:00,58.0,53.5,30.10,North,360,0.0,1.0,85,0.00,CLR,FEW,0.00,0.0,WeatherDisplay:10.37,2013-07-26 03:42:00,
2013-07-25 23:47:00,57.9,53.7,30.10,North,360,0.0,1.0,86,0.00,CLR,FEW,0.00,0.0,WeatherDisplay:10.37,2013-07-26 03:47:00,
2013-07-25 23:52:00,57.7,53.5,30.10,North,360,0.0,1.0,86,0.00,CLR,FEW,0.00,0.0,WeatherDisplay:10.37,2013-07-26 03:52:00,
2013-07-25 23:57:00,57.6,53.4,30.10,North,360,0.0,1.0,86,0.00,CLR,FEW,0.00,0.0,WeatherDisplay:10.37,2013-07-26 03:57:00,